Retour au catalogue

INMARSAT 3-F1

ActifCommunicationsGEO
NORAD 23839·PAYLOAD·🇮🇲 IM

Lancé Apr 3, 1996 depuis Cape Canaveral Space Force Station

Loading…

TLE

FraisSource: Space-Track

Époque: Sep 14, 2026, 13:42 UTC

1 23839U 96020A   26257.57121648 -.00000066  00000-0  00000-0 0  9991
2 23839  10.7842  45.7823 0006915 150.5293 176.1703  1.00002850111143

Suivez INMARSAT 3-F1 en temps réel avec AllMySat

Download on the App Store